Regional Weather Roundup
Issued by NWS

Home | Current Version | Previous Version | Text Only | Print | Product List | Glossary Off
Versions: 1 2 3 4 5 6 7 8 9 10 11 12 13 14 15 16 17 18 19 20 21 22 23 24 25 26 27 28 29 30 31 32 33 34 35 36 37 38 39 40 41 42 43 44 45 46 47 48 49 50

000
ASUS43 KLOT 180112
RWRIL

ILLINOIS REGIONAL WEATHER ROUNDUP
NATIONAL WEATHER SERVICE CHICAGO/ROMEOVILLE IL
800 PM CDT FRI APR 17 2015

NOTE: "FAIR" INDICATES FEW OR NO CLOUDS BELOW 12,000 FEET WITH NO
SIGNIFICANT WEATHER AND/OR OBSTRUCTIONS TO VISIBILITY.

* THESE STATIONS ARE NOT UNDER NWS QUALITY CONTROL. THEY ALSO MAY NOT
  REPORT WEATHER SUCH AS PRECIPITATION OR FOG.

ILZ001-002-007-009-015-016-024-180200-
NORTHWEST ILLINOIS

CITY           SKY/WX    TMP DP  RH WIND       PRES   REMARKS
MOLINE         MOCLDY    67  51  56 CALM      29.97R
STERLING*      CLEAR     66  48  52 CALM      29.98S
SAVANNA*       CLEAR     73  50  43 CALM      29.98R
$$

ILZ003-004-008-010-011-017-018-180200-
NORTH CENTRAL ILLINOIS

CITY           SKY/WX    TMP DP  RH WIND       PRES   REMARKS
ROCKFORD       MOCLDY    71  48  43 CALM      30.01R
FREEPORT*      CLOUDY    71  47  41 CALM      30.01R
ROCHELLE*      CLOUDY    69  47  44 W3        29.99S
DE KALB*       PTCLDY    67  46  45 SW3       30.00S
PERU*          CLEAR     72  46  39 W3        29.99S
$$

ILZ005-006-012>014-019>023-180200-
NORTHEAST ILLINOIS

CITY           SKY/WX    TMP DP  RH WIND       PRES   REMARKS
CHICAGO-OHARE  PTCLDY    69  45  41 SE6       29.98S
CHICAGO-MIDWAY MOCLDY    70  45  40 E8        29.99S
AURORA         CLEAR     67  48  50 CALM      29.99S
LANSING*       CLEAR     68  44  42 SW3       29.99F
JOLIET*        CLEAR     65  50  58 CALM      29.99R
WAUKEGAN       PTCLDY    54  44  69 E5        29.99S
DUPAGE AIRPORT PTCLDY    67  48  50 CALM      29.98S
KANKAKEE*      CLEAR     69  49  50 SE3       30.00S
WHEELING       MOCLDY    66  45  46 SE3       29.99F
MORRIS*        CLEAR     71  46  41 SW5       29.96F
ROMEOVILLE*    CLEAR     71  42  35 CALM      29.99S
NORTHERLY ISL    N/A     57  44  62 SE1         N/A
$$

LMZ740>746-180200-
SOUTHERN LAKE MICHIGAN

STATION/POSITION SKY/WX   TEMP    WIND        PRES    VSBY  WAVE
                          AIR SEA DIR/SP/G                  HT/PER
                          (F)     (DEG/KT/KT) (MB)    (MI)  (FT/S)
HARRISON CRIB              57     170/  7/  8   N/A
BURNHAM HARBOR             56      CALM  /  2   N/A
CALUMET HARBOR             61     110/  7/  9   N/A
BURNS HARBOR               61      90/  9/ 10 1016.3F
MICHIGAN CITY              66      40/ 10/ 10   N/A
MICHIGAN CITY 6N           55 48                N/A           0
$$

ILZ025>027-034>036-040-047-049-050-058-095>099-180200-
WEST-CENTRAL ILLINOIS

CITY           SKY/WX    TMP DP  RH WIND       PRES   REMARKS
QUINCY         CLEAR     71  51  49 S3        29.99R
GALESBURG*     MOCLDY    70  52  52 CALM      29.99R
MACOMB*        PTCLDY    72  52  49 CALM      30.00S
JACKSONVILLE*  PTCLDY    73  54  50 S5        29.99R
PITTSFIELD*    CLEAR     72  54  52 S5        30.01R
$$

ILZ028>032-037-038-041>044-048-051>054-059>061-180200-
CENTRAL ILLINOIS

CITY           SKY/WX    TMP DP  RH WIND       PRES   REMARKS
PONTIAC        CLEAR     72  48  43 CALM      29.99S
BLOOMINGTON    CLEAR     70  52  52 VRB5      30.01R
DECATUR        CLEAR     69  52  54 S6        30.00R
PEORIA         CLEAR     74  51  44 CALM      29.98S
LACON*         CLEAR     67  52  57 CALM      29.98S
LINCOLN*       CLEAR     72  51  48 S3        29.97S
SPRINGFIELD    CLEAR     70  53  54 S7        30.00R
TAYLORVILLE    CLEAR     68  54  60 SE5       30.01R
$$

ILZ033-039-045-046-055>057-062-063-180200-
EAST-CENTRAL ILLINOIS

CITY           SKY/WX    TMP DP  RH WIND       PRES   REMARKS
CHAMPAIGN      CLEAR     67  50  54 SE9       30.00S
DANVILLE*      CLEAR     67  49  52 SE3       29.99S
RANTOUL*       CLEAR     71  52  50 SE6       30.00S
MATTOON        CLEAR     69  55  60 E3        30.01R
PARIS*         CLEAR     66  57  73 CALM      30.02F
$$

ILZ079-100>102-180200-
SOUTHWEST ILLINOIS

CITY           SKY/WX    TMP DP  RH WIND       PRES   REMARKS
BELLEVILLE     CLEAR     70  60  69 CALM      29.99R
CAHOKIA*       CLEAR     71  58  63 E3        29.99R
SPARTA*        CLEAR     69  58  67 CALM      30.01R
$$

ILZ064>066-069>071-074>076-080>082-084>086-088>090-092>094-180200-
SOUTH-CENTRAL ILLINOIS

CITY           SKY/WX    TMP DP  RH WIND       PRES   REMARKS
CARBONDALE     CLEAR     67  59  75 CALM      29.99R
CAIRO*         CLEAR     70  63  80 SW3       30.00S
EFFINGHAM*     CLEAR     68  50  52 CALM      30.02S
MARION         CLEAR     68  61  77 CALM      30.01R
MT. VERNON     CLEAR     66  54  63 CALM      30.02R
CENTRALIA*     CLEAR     65  56  71 CALM      30.02R
SALEM*         PTCLDY    70  56  59 CALM      30.02R
METROPOLIS*    MOCLDY    71  63  73 S3        30.00R
$$

ILZ067-068-072-073-078-083-087-091-180200-
SOUTHEAST ILLINOIS

CITY           SKY/WX    TMP DP  RH WIND       PRES   REMARKS
LAWRENCEVILLE  PTCLDY    68  56  65 CALM      30.01R
FLORA*         PTCLDY    68  58  71 CALM      30.02R
FAIRFIELD*     CLEAR     67  59  75 CALM      30.01R
HARRISBURG*    CLEAR     69  61  76 E3        30.02R
ROBINSON*      PTCLDY    69  53  55 CALM      30.02S
CARMI*         MOCLDY    67  57  70 CALM      30.01R
$$

ABBREVIATIONS USED IN REMARKS
   TC - TEMPERATURE IN CELSIUS
  WCI - WIND CHILL INDEX
   HX - HEAT INDEX
  VSB - VISIBILITY
$$



USA.gov is the U.S. government's official web portal to all federal, state and local government web resources and services.